DW5684 Weather Reports


Display with metric or nautical units.
time (UTC)temp
F
wind
direction
speed
MPH
gust
MPH
rain 1hr
in
rain 24hr
in
rain mn
in
humidity
%
barometer
mb
20260505204301 50 30 2.0 10.0 0.00 0.08 0.08 81 1010.8
20260505203836 50 287 2.0 9.0 0.00 0.08 0.08 81 1010.6
20260505203329 50 24 1.0 9.0 0.00 0.08 0.08 81 1010.6
20260505202803 50 305 1.0 8.0 0.00 0.08 0.08 79 1010.5
20260505202318 51 157 2.0 8.0 0.00 0.08 0.08 78 1010.3
20260505201813 51 316 2.0 9.0 0.00 0.08 0.08 78 1010.4
20260505201308 51 311 3.0 9.0 0.00 0.08 0.08 78 1010.4
20260505200803 51 335 2.0 11.0 0.00 0.08 0.08 76 1010.4
20260505200301 51 326 4.0 11.0 0.00 0.08 0.08 75 1010.4
20260505195816 51 314 3.0 9.0 0.00 0.08 0.08 76 1010.1
20260505195312 51 313 2.0 9.0 0.00 0.08 0.08 76 1010.2
20260505194807 51 310 3.0 8.0 0.00 0.08 0.08 76 1010.4
20260505194300 52 339 3.0 8.0 0.00 0.08 0.08 76 1010.4
20260505193814 52 359 3.0 8.0 0.00 0.08 0.08 76 1010.1
20260505193309 52 123 3.0 8.0 0.00 0.08 0.08 76 1010.1
20260505192804 52 330 3.0 7.0 0.00 0.08 0.08 75 1010.1
20260505192305 52 158 3.0 10.0 0.00 0.08 0.08 74 1010.1
20260505191816 52 285 4.0 12.0 0.00 0.08 0.08 74 1010.0
20260505191309 53 94 4.0 12.0 0.00 0.08 0.08 74 1010.1
20260505190803 53 297 4.0 11.0 0.00 0.08 0.08 73 1010.0
20260505190317 53 296 4.0 12.0 0.00 0.08 0.08 73 1010.0
20260505185811 53 339 4.0 13.0 0.00 0.08 0.08 74 1010.1
20260505185306 53 359 4.0 13.0 0.00 0.08 0.08 73 1010.2
20260505184800 53 331 4.0 9.0 0.00 0.08 0.08 74 1010.1
20260505184319 53 326 3.0 9.0 0.00 0.08 0.08 74 1010.1
20260505183813 53 339 2.0 9.0 0.00 0.08 0.08 76 1010.0
20260505183307 53 307 3.0 9.0 0.00 0.08 0.08 77 1010.1
20260505182802 53 117 2.0 8.0 0.00 0.08 0.08 77 1010.2
20260505182337 53 306 2.0 10.0 0.00 0.08 0.08 77 1010.2
20260505181810 53 351 4.0 13.0 0.00 0.08 0.08 75 1010.4
20260505181304 53 325 5.0 13.0 0.00 0.08 0.08 76 1010.2
20260505180800 53 284 4.0 8.0 0.00 0.08 0.08 79 1010.1
20260505180334 53 286 3.0 14.0 0.00 0.08 0.08 79 1009.9
20260505175811 53 299 4.0 14.0 0.00 0.08 0.08 78 1009.8
20260505175306 53 299 2.0 11.0 0.00 0.08 0.08 79 1009.7
20260505174800 53 323 4.0 10.0 0.00 0.08 0.08 78 1009.6
20260505174315 53 335 4.0 11.0 0.00 0.08 0.08 78 1009.5
20260505173810 54 235 4.0 12.0 0.00 0.08 0.08 78 1009.5
20260505173304 54 344 2.0 12.0 0.00 0.08 0.08 81 1009.5
20260505172839 54 295 2.0 7.0 0.00 0.08 0.08 82 1009.4
20260505172312 53 302 3.0 8.0 0.00 0.08 0.08 82 1009.6
20260505171809 52 96 2.0 8.0 0.00 0.08 0.08 83 1009.8
20260505171323 52 101 1.0 9.0 0.00 0.08 0.08 83 1010.0
20260505170816 52 147 3.0 9.0 0.00 0.08 0.08 83 1009.9
20260505170310 52 276 1.0 7.0 0.00 0.08 0.08 84 1010.0
20260505165805 52 314 2.0 10.0 0.00 0.08 0.08 84 1010.0
20260505165300 52 352 3.0 10.0 0.00 0.08 0.08 84 1010.0
20260505164815 53 37 2.0 11.0 0.00 0.08 0.08 84 1009.9
20260505164310 53 303 3.0 11.0 0.00 0.08 0.08 84 1009.9
20260505163825 53 306 3.0 8.0 0.00 0.08 0.08 85 1009.7
20260505163303 53 305 3.0 8.0 0.00 0.08 0.08 83 1009.7
20260505162838 53 273 1.0 9.0 0.00 0.08 0.08 84 1009.6
20260505162332 53 330 3.0 9.0 0.00 0.08 0.08 83 1009.6
20260505161825 53 317 2.0 9.0 0.00 0.08 0.08 84 1009.6
20260505161259 53 331 2.0 10.0 0.00 0.08 0.08 85 1009.4
20260505160813 53 354 3.0 10.0 0.00 0.08 0.08 83 1009.6
20260505160308 54 290 3.0 8.0 0.00 0.08 0.08 84 1009.4
20260505153339 53 18 1.0 7.0 0.00 0.08 0.08 84 1009.7
20260505152813 53 316 1.0 6.0 0.00 0.08 0.08 84 1009.8
20260505152308 53 12 1.0 10.0 0.00 0.08 0.08 85 1009.6
20260505151802 53 352 3.0 10.0 0.00 0.08 0.08 84 1009.8
20260505151317 53 297 1.0 7.0 0.00 0.08 0.08 86 1009.9
20260505150812 53 349 3.0 12.0 0.00 0.08 0.08 85 1009.9
20260505150307 53 318 2.0 12.0 0.00 0.08 0.08 86 1010.0
20260505140308 52 291 2.0 8.0 0.00 0.08 0.08 88 1008.2
20260505130307 54 309 3.0 12.0 0.00 0.08 0.08 86 1008.6
20260505124814 55 319 2.0 6.0 0.00 0.08 0.08 86 1008.1
20260505124309 55 336 2.0 7.0 0.00 0.08 0.08 87 1008.0
20260505123804 55 335 2.0 7.0 0.00 0.08 0.08 86 1008.1
20260505123339 55 300 1.0 6.0 0.00 0.08 0.08 87 1007.9
20260505122813 55 295 2.0 6.0 0.00 0.08 0.08 87 1007.7
20260505122325 55 151 1.0 5.0 0.00 0.08 0.08 88 1007.6
20260505121818 55 328 0.0 4.0 0.00 0.08 0.08 88 1007.6
20260505121313 54 291 1.0 4.0 0.00 0.08 0.08 88 1007.5
20260505120812 55 330 1.0 6.0 0.00 0.08 0.08 88 1007.6
20260505120307 55 281 0.0 6.0 0.00 0.08 0.08 88 1007.4
20260505115801 55 94 2.0 5.0 0.00 0.08 0.08 89 1007.3
20260505115315 55 359 1.0 6.0 0.00 0.08 0.08 89 1007.1
20260505114830 55 316 1.0 5.0 0.00 0.08 0.08 90 1006.8
20260505114305 54 276 1.0 5.0 0.00 0.08 0.08 89 1006.7
20260505113759 55 242 0.0 4.0 0.00 0.08 0.08 89 1006.5
20260505113314 55 340 0.0 4.0 0.00 0.08 0.08 89 1006.5
20260505112813 55 252 1.0 5.0 0.00 0.08 0.08 89 1006.8
20260505112307 55 318 2.0 5.0 0.00 0.08 0.08 89 1006.8
20260505111800 55 311 2.0 6.0 0.00 0.08 0.08 88 1007.1
20260505111314 55 304 2.0 6.0 0.00 0.08 0.08 88 1006.8
20260505110829 56 338 1.0 5.0 0.00 0.08 0.08 88 1006.6
20260505110323 56 302 0.0 6.0 0.00 0.08 0.08 89 1006.7
20260505101816 58 297 0.0 4.0 0.00 0.08 0.08 87 1006.6
20260505101311 58 314 1.0 4.0 0.00 0.08 0.08 87 1006.4
20260505100806 58 134 0.0 5.0 0.00 0.08 0.08 86 1006.6
20260505100321 59 265 1.0 8.0 0.00 0.08 0.08 86 1006.7
20260505095835 59 23 1.0 8.0 0.00 0.08 0.08 85 1006.4
20260505095329 60 338 3.0 8.0 0.00 0.08 0.08 85 1005.7
20260505094827 61 290 3.0 7.0 0.00 0.08 0.08 85 1005.4
20260505094301 61 202 0.0 6.0 0.00 0.08 0.08 85 1005.9
20260505093816 62 25 1.0 4.0 0.00 0.08 0.08 86 1006.8
20260505093310 62 328 1.0 4.0 0.00 0.08 0.08 88 1006.8
20260505092805 63 39 0.0 9.0 0.00 0.08 0.08 88 1007.1
20260505092259 62 310 2.0 9.0 0.00 0.08 0.08 88 1007.4
20260505091834 62 286 1.0 7.0 0.00 0.08 0.08 89 1007.1
20260505091308 62 305 2.0 11.0 0.00 0.08 0.08 90 1006.7
20260505090808 62 302 4.0 11.0 0.00 0.08 0.08 90 1006.8
20260505090303 62 15 2.0 6.0 0.00 0.08 0.08 91 1006.7
20260505085818 62 257 0.0 0.0 0.00 0.08 0.08 91 1005.5
20260505085313 62 257 0.0 0.0 0.00 0.08 0.08 90 1004.9
20260505084808 62 176 0.0 2.0 0.00 0.08 0.08 90 1004.6
20260505084323 62 217 1.0 2.0 0.00 0.08 0.08 90 1004.5
20260505083836 62 226 0.0 3.0 0.01 0.08 0.08 90 1004.4
20260505083310 62 200 1.0 3.0 0.02 0.08 0.08 90 1004.0
20260505082805 62 156 0.0 5.0 0.03 0.08 0.08 90 1004.0
20260505082304 62 203 0.0 6.0 0.04 0.08 0.08 90 1003.9
20260505081817 62 214 0.0 8.0 0.05 0.08 0.08 90 1003.8
20260505081312 62 222 2.0 11.0 0.06 0.08 0.08 90 1003.9
20260505080806 62 197 7.0 11.0 0.07 0.08 0.08 91 1003.7
20260505080301 62 161 5.0 9.0 0.08 0.08 0.08 92 1003.8
20260505075815 62 150 3.0 11.0 0.08 0.08 0.08 92 1003.5
20260505075307 62 147 3.0 11.0 0.08 0.08 0.08 92 1003.3
20260505074802 62 174 3.0 18.0 0.08 0.08 0.08 92 1003.4
20260505074301 62 230 6.0 21.0 0.08 0.08 0.08 92 1003.0
20260505073816 62 200 12.0 21.0 0.07 0.07 0.07 93 1002.6
20260505073311 62 227 6.0 14.0 0.06 0.06 0.06 92 1004.4
20260505072826 63 235 6.0 15.0 0.05 0.05 0.05 91 1005.6
20260505072300 63 233 7.0 15.0 0.04 0.04 0.04 90 1005.9
20260505071815 63 250 5.0 14.0 0.03 0.03 0.03 88 1006.1
20260505071311 64 214 7.0 14.0 0.02 0.02 0.02 87 1005.9
20260505070826 65 219 6.0 11.0 0.01 0.01 0.01 84 1006.0
20260505070303 66 230 4.0 11.0 0.00 0.00 0.00 80 1006.0
20260505065818 67 216 4.0 11.0 0.00 0.00 0.00 78 1005.8
20260505065313 67 214 6.0 11.0 0.00 0.00 0.00 75 1006.1
20260505064809 67 139 3.0 8.0 0.00 0.00 0.00 74 1006.1
20260505064323 67 166 4.0 8.0 0.00 0.00 0.00 74 1006.1
20260505063837 67 179 2.0 3.0 0.00 0.00 0.00 74 1005.7
20260505063310 67 216 1.0 3.0 0.00 0.00 0.00 75 1005.5
20260505062805 66 207 0.0 3.0 0.00 0.00 0.00 75 1005.3
20260505062300 66 152 1.0 3.0 0.00 0.00 0.00 76 1005.3
20260505061759 66 157 0.0 3.0 0.00 0.00 0.00 76 1005.3
20260505061333 66 169 0.0 3.0 0.00 0.00 0.00 76 1005.3
20260505060806 66 242 1.0 3.0 0.00 0.00 0.00 76 1005.3
20260505060300 66 176 1.0 3.0 0.00 0.00 0.00 76 1005.3
20260505055833 66 192 0.0 2.0 0.00 0.00 0.00 77 1005.3
20260505055307 66 177 0.0 2.0 0.00 0.00 0.00 77 1005.2
20260505054802 66 162 1.0 2.0 0.00 0.00 0.00 76 1005.2
20260505054336 66 193 0.0 3.0 0.00 0.00 0.00 77 1005.3
20260505053810 66 162 0.0 2.0 0.00 0.00 0.00 77 1005.5
20260505053309 65 195 0.0 2.0 0.00 0.00 0.00 77 1005.6
20260505052804 65 166 0.0 2.0 0.00 0.00 0.00 77 1005.8
20260505052317 65 217 0.0 2.0 0.00 0.00 0.00 77 1005.9
20260505051812 65 170 0.0 2.0 0.00 0.00 0.00 77 1005.8
20260505051305 65 198 0.0 2.0 0.00 0.00 0.00 77 1005.5
20260505050818 65 135 0.0 5.0 0.00 0.00 0.00 77 1005.3
20260505050333 65 174 1.0 7.0 0.00 0.00 0.00 76 1005.1
20260505041302 66 181 2.0 5.0 0.00 0.00 0.00 75 1005.5
20260505040801 67 178 1.0 6.0 0.00 0.00 0.00 74 1005.6
20260505040316 67 171 3.0 7.0 0.00 0.00 0.00 73 1005.6
20260505035811 67 181 1.0 7.0 0.00 0.00 0.00 73 1005.6
20260505035305 67 158 2.0 6.0 0.00 0.00 0.00 72 1005.6
20260505034759 68 188 1.0 6.0 0.00 0.00 0.00 72 1005.6
20260505034314 68 155 2.0 6.0 0.00 0.00 0.00 72 1005.7
20260505033809 68 190 1.0 5.0 0.00 0.00 0.00 71 1005.8
20260505033304 68 172 1.0 6.0 0.00 0.00 0.00 71 1005.8
20260505032802 68 175 2.0 6.0 0.00 0.00 0.00 71 1006.0
20260505032316 68 262 2.0 6.0 0.00 0.00 0.00 71 1005.8
20260505031810 69 148 1.0 6.0 0.00 0.00 0.00 70 1005.8
20260505031306 69 154 2.0 6.0 0.00 0.00 0.00 70 1006.0
20260505030802 69 188 2.0 7.0 0.00 0.00 0.00 69 1005.8
20260505030338 69 148 2.0 8.0 0.00 0.00 0.00 69 1005.8
20260505025811 69 200 3.0 8.0 0.00 0.00 0.00 68 1005.8
20260505025307 70 207 2.0 6.0 0.00 0.00 0.00 68 1006.0
20260505024802 70 153 1.0 6.0 0.00 0.00 0.00 67 1006.0
20260505024301 70 221 2.0 6.0 0.00 0.00 0.00 68 1005.8
20260505023816 70 208 3.0 10.0 0.00 0.00 0.00 68 1005.7
20260505023311 70 233 3.0 10.0 0.00 0.00 0.00 69 1005.7
20260505022806 70 208 2.0 4.0 0.00 0.00 0.00 69 1005.8
20260505022301 70 222 1.0 5.0 0.00 0.00 0.00 68 1005.8
20260505021815 70 181 2.0 5.0 0.00 0.00 0.00 68 1005.8
20260505021330 70 218 0.0 4.0 0.00 0.00 0.00 68 1005.8
20260505020825 70 212 1.0 4.0 0.00 0.00 0.00 68 1005.8
20260505020318 70 200 1.0 7.0 0.00 0.00 0.00 68 1005.7
20260505015833 70 217 3.0 7.0 0.00 0.00 0.00 69 1005.7
20260505015312 70 221 1.0 4.0 0.00 0.00 0.00 69 1005.6
20260505014806 70 212 0.0 3.0 0.00 0.00 0.00 69 1005.7
20260505014300 71 205 0.0 3.0 0.00 0.00 0.00 68 1005.7
20260505013815 71 225 0.0 3.0 0.00 0.00 0.00 66 1005.5
20260505013310 71 227 1.0 5.0 0.00 0.00 0.00 66 1005.4
20260505012805 72 215 0.0 5.0 0.00 0.00 0.00 65 1005.4
20260505012300 72 141 0.0 0.0 0.00 0.00 0.00 65 1005.3
20260505011818 72 217 0.0 4.0 0.00 0.00 0.00 65 1005.2
20260505011313 72 207 0.0 4.0 0.00 0.00 0.00 64 1005.2
20260505010808 73 223 1.0 4.0 0.00 0.00 0.00 63 1005.1
20260505010302 73 166 1.0 4.0 0.00 0.00 0.00 63 1004.9
20260505005817 73 237 1.0 5.0 0.00 0.00 0.00 62 1005.2
20260505005313 73 217 1.0 5.0 0.00 0.00 0.00 63 1005.0
20260505004827 73 230 2.0 5.0 0.00 0.00 0.00 63 1004.9
20260505004259 73 191 0.0 3.0 0.00 0.00 0.00 63 1004.8
20260505003813 74 230 1.0 3.0 0.00 0.00 0.00 62 1004.8
20260505003312 74 220 0.0 5.0 0.00 0.00 0.00 62 1004.7
20260505002807 74 225 1.0 5.0 0.00 0.00 0.00 62 1004.6
20260505002303 74 220 0.0 3.0 0.00 0.00 0.00 61 1004.7
20260505001817 75 227 0.0 3.0 0.00 0.00 0.00 61 1004.7
20260505001310 75 186 0.0 4.0 0.00 0.00 0.00 61 1004.6
20260505000805 75 210 1.0 4.0 0.00 0.00 0.00 60 1004.5
20260505000300 76 217 0.0 5.0 0.00 0.00 0.00 59 1004.5
20260504235814 76 175 3.0 9.0 0.00 0.00 0.00 57 1004.4
20260504235313 76 214 3.0 9.0 0.00 0.00 0.00 57 1004.5
20260504234808 76 209 0.0 8.0 0.00 0.00 0.00 57 1004.5
20260504234301 77 219 2.0 8.0 0.00 0.00 0.00 55 1004.5
20260504233815 77 171 2.0 8.0 0.00 0.00 0.00 55 1004.6
20260504233311 77 224 2.0 7.0 0.00 0.00 0.00 55 1004.6
20260504232806 78 235 5.0 8.0 0.00 0.00 0.00 54 1004.6
20260504232340 78 212 3.0 11.0 0.00 0.00 0.00 54 1004.6
20260504231834 78 214 3.0 11.0 0.00 0.00 0.00 54 1004.5
20260504231308 79 209 4.0 8.0 0.00 0.00 0.00 54 1004.5
20260504230806 79 207 2.0 8.0 0.00 0.00 0.00 54 1004.5
20260504230301 79 230 4.0 9.0 0.00 0.00 0.00 54 1004.4
20260504225836 79 236 4.0 9.0 0.00 0.00 0.00 53 1004.4
20260504225310 79 212 4.0 9.0 0.00 0.00 0.00 52 1004.5
20260504224805 80 221 2.0 6.0 0.00 0.00 0.00 55 1004.5
20260504224319 79 278 1.0 8.0 0.00 0.00 0.00 53 1004.5
20260504223833 79 229 2.0 9.0 0.00 0.00 0.00 52 1004.5
20260504223307 80 239 6.0 11.0 0.00 0.00 0.00 51 1004.4
20260504222802 80 223 3.0 11.0 0.00 0.00 0.00 53 1004.4
20260504222301 80 167 3.0 7.0 0.00 0.00 0.00 52 1004.4
20260504221815 81 213 3.0 11.0 0.00 0.00 0.00 55 1004.4
20260504221309 81 228 4.0 13.0 0.00 0.00 0.00 50 1004.4
20260504220803 81 186 6.0 13.0 0.00 0.00 0.00 50 1004.4
20260504220318 81 208 4.0 9.0 0.00 0.00 0.00 52 1004.5
20260504215832 82 191 4.0 9.0 0.00 0.00 0.00 51 1004.4
20260504215305 82 218 2.0 8.0 0.00 0.00 0.00 51 1004.5
20260504214800 82 221 2.0 14.0 0.00 0.00 0.00 50 1004.5
20260504214259 81 217 5.0 14.0 0.00 0.00 0.00 50 1004.6
20260504213814 81 224 4.0 9.0 0.00 0.00 0.00 52 1004.6
20260504213309 80 205 4.0 11.0 0.00 0.00 0.00 52 1004.5
20260504212804 80 208 3.0 11.0 0.00 0.00 0.00 52 1004.5
20260504212318 80 291 3.0 12.0 0.00 0.00 0.00 52 1004.6
20260504211833 81 248 7.0 16.0 0.00 0.00 0.00 52 1004.6
20260504211307 80 228 7.0 16.0 0.00 0.00 0.00 50 1004.8
20260504210801 81 217 4.0 12.0 0.00 0.00 0.00 50 1004.7
20260504210300 81 197 6.0 12.0 0.00 0.00 0.00 50 1004.7
20260504205835 82 245 5.0 13.0 0.00 0.00 0.00 51 1004.9
20260504205308 81 219 5.0 13.0 0.00 0.00 0.00 50 1005.0
20260504204802 82 216 5.0 12.0 0.00 0.00 0.00 51 1005.0